Location: Crescent
(42.8242°N, 73.7329°W)
Time: 03:30:11
(UTC+00:00)

Tiros 1 - Pass Details

Date: 25 February 2026
Orbit: 618 x 649 km, 48.4° (Epoch: 7 March)

Event Time Altitude Azimuth Distance (km) Brightness Sun altitude
Rises 12:19:11 0° 265° (W) 2,925 9.9 6.6°
Reaches altitude 10° 12:21:35 10° 271° (W) 2,013 9.1 7.0°
Maximum altitude 12:26:05 49° 346° (NNW) 808 7.6 7.8°
Drops below altitude 10° 12:30:33 10° 63° (ENE) 1,997 10.4 8.6°
Sets 12:32:55 0° 68° (ENE) 2,900 11.3 9.0°
